GFSSGP_sfc_rhum_003.txt.gz
RH
67 54 38 40 38 40 43 36 31 28 26 23 21 25 26 26 32 36 63 66 70 66 72 73 85 84 79 75 74 74 73 68 63 69 64 54 57 61 68 65 61 60 58 59 58 62 60 62 65
62 43 43 44 40 42 38 33 30 27 24 23 25 26 26 31 43 47 57 68 74 68 71 71 87 85 81 77 76 74 71 70 62 60 59 58 53 66 65 61 61 55 60 62 61 66 68 65 64
44 37 43 44 48 43 40 31 28 29 27 22 25 29 29 34 46 48 54 68 75 71 73 77 87 85 83 78 78 75 71 67 64 62 60 60 59 64 61 58 57 60 66 64 65 67 69 70 70
47 44 43 45 46 44 37 27 30 31 26 23 24 26 31 35 44 48 67 79 76 76 79 82 89 87 87 84 80 78 72 67 64 62 63 61 62 63 64 65 72 71 70 66 66 68 68 68 70
50 51 53 57 50 42 38 34 32 31 31 26 24 25 31 37 52 63 77 82 77 85 81 73 88 87 89 86 83 80 75 70 65 65 64 62 67 70 69 71 73 72 71 68 67 71 72 72 72
58 53 62 61 50 44 37 33 32 31 29 25 25 28 29 38 51 76 81 81 83 86 85 74 85 91 90 88 86 81 75 72 68 64 64 63 73 74 74 77 75 75 71 75 72 74 74 74 74
66 62 65 61 54 48 40 33 33 32 29 24 25 28 26 31 50 76 77 81 84 86 86 77 70 81 90 89 87 85 79 75 72 70 71 74 82 77 79 84 79 79 79 78 78 78 77 77 78
66 60 72 64 52 50 36 37 31 29 27 22 25 28 25 31 53 71 76 80 84 87 83 81 78 76 77 78 90 88 85 82 81 81 85 89 90 87 84 88 87 83 81 81 80 80 81 85 87
62 77 77 65 60 48 39 38 33 27 26 28 27 25 28 43 59 67 76 88 84 87 85 80 80 81 83 80 80 87 88 86 87 85 92 86 74 76 77 88 92 88 86 84 82 83 79 79 74
76 86 76 61 53 49 42 42 39 36 34 34 31 28 31 47 60 61 66 77 85 81 80 78 81 80 85 83 79 79 78 78 77 78 81 76 74 72 73 87 92 89 88 86 76 64 57 50 39
79 77 68 60 50 49 52 49 42 40 45 38 35 31 30 42 53 60 59 61 73 75 76 77 84 84 89 83 86 85 84 84 83 81 79 78 75 73 72 70 72 73 84 60 45 39 36 35 32
84 77 73 64 59 62 62 56 60 46 43 35 32 34 33 31 38 54 58 58 67 79 75 74 83 91 90 86 86 83 82 82 83 81 79 79 72 76 75 74 72 61 46 41 35 33 30 27 25
82 78 70 64 66 66 65 68 64 63 46 42 44 45 39 35 33 38 52 56 59 68 79 79 80 88 90 89 87 82 78 79 78 78 78 77 75 80 62 45 47 38 34 30 30 29 24 21 21
69 71 68 63 59 61 63 59 63 54 52 52 48 42 37 38 34 33 34 38 51 57 64 77 86 85 88 89 86 82 82 80 76 76 77 79 82 63 53 46 44 36 29 28 27 28 26 21 20
72 78 69 65 59 58 57 66 68 48 50 49 48 44 42 39 36 35 31 32 30 36 40 66 78 86 88 86 82 87 80 76 74 77 79 78 49 46 44 37 34 33 30 26 25 24 28 22 19
74 75 85 60 60 58 54 63 54 45 48 50 48 48 45 40 37 34 34 34 32 32 39 50 71 86 84 82 88 89 87 90 82 76 55 42 43 43 38 40 34 32 30 28 27 25 26 25 23
82 82 88 69 57 56 65 67 51 46 51 51 48 46 46 42 38 36 36 34 33 32 42 65 77 87 87 87 88 87 77 76 63 49 44 41 40 34 32 34 35 30 29 28 26 26 28 27 27
80 95 77 71 58 61 67 67 55 52 50 47 49 49 49 46 41 36 36 36 37 46 55 70 83 88 84 77 71 72 57 50 48 44 39 36 36 34 34 33 31 28 29 26 26 25 28 31 33
80 85 80 65 59 68 64 61 53 48 51 50 47 44 44 47 41 40 40 39 51 66 73 83 88 85 76 78 69 65 60 47 41 38 34 35 36 34 36 33 30 30 29 29 26 28 29 30 36
78 81 78 58 62 64 63 62 50 46 46 44 43 45 49 49 44 42 42 51 60 67 83 84 86 77 76 74 68 59 51 43 40 41 37 37 34 33 33 32 32 31 30 30 30 34 29 31 37
71 76 66 65 64 60 62 56 39 31 32 37 39 38 36 37 37 37 43 50 68 74 87 89 81 75 72 67 57 48 39 37 39 39 41 34 31 31 31 32 30 33 33 34 34 35 34 32 34
83 73 75 78 83 82 60 71 40 39 36 34 37 36 35 38 40 38 43 51 68 75 89 83 73 71 61 61 54 51 46 40 32 35 37 33 32 32 30 32 31 30 31 31 30 29 34 36 35
74 70 75 80 88 92 73 84 54 46 45 41 37 41 42 39 43 42 44 48 57 81 89 75 66 62 58 58 52 54 43 34 36 38 34 32 31 32 31 30 31 30 30 31 32 33 33 35 34
65 74 72 74 78 93 68 73 57 38 35 37 37 35 41 38 44 48 46 57 80 86 80 72 62 59 56 53 49 44 37 33 38 36 33 30 30 31 30 29 29 30 30 32 34 36 37 36 35
71 97 95 96 97 83 60 75 53 37 33 33 31 36 40 41 45 51 63 77 84 86 78 70 62 58 53 48 42 39 32 31 35 33 32 30 28 30 29 28 26 28 33 35 35 36 36 35 36
83 80 92 89 84 73 64 77 56 42 34 33 30 28 28 38 43 58 65 76 82 84 74 66 60 55 50 44 43 34 30 32 30 32 29 27 27 28 27 27 26 28 29 31 33 36 37 36 37
98 98 70 95 85 93 68 59 42 37 35 37 36 32 32 34 48 56 74 77 85 79 71 66 58 54 55 54 45 34 32 34 35 31 29 29 29 26 26 27 28 29 30 31 33 33 33 35 37
82 78 96 98 96 90 64 61 60 38 26 31 41 41 38 36 50 63 75 84 84 76 69 61 55 57 59 51 40 36 34 34 32 29 29 28 25 25 27 28 29 30 31 31 32 33 34 35 37
93 98 99 97 96 87 69 45 41 35 36 46 47 44 45 43 50 63 79 80 79 71 66 61 58 55 51 43 40 36 34 31 27 26 25 25 24 25 27 28 30 31 31 31 30 32 35 39 40
65 72 72 90 89 87 84 61 32 35 57 51 49 50 56 60 56 77 77 72 70 66 61 57 51 49 43 37 34 32 29 27 26 24 25 24 26 27 29 31 33 32 32 30 30 37 40 42 43

GFSSGP_sfc_rhum_006.txt.gz
RH
44 28 23 22 27 25 26 22 18 21 21 17 15 18 20 19 25 28 46 44 46 44 48 60 83 82 77 74 74 74 71 65 70 65 57 56 58 63 66 64 61 59 60 58 61 61 60 63 64
33 25 23 23 28 28 22 20 20 20 19 16 17 20 20 22 24 32 37 49 45 43 48 52 86 84 78 76 75 74 73 64 65 64 58 55 58 62 65 62 60 59 62 61 63 67 69 68 69
33 24 26 28 28 28 25 21 16 21 19 17 19 20 22 24 33 31 39 45 44 45 48 54 86 84 80 76 77 73 71 67 62 60 58 58 58 62 64 56 58 65 65 64 66 68 68 68 69
29 26 25 30 28 24 24 19 20 22 18 18 17 19 20 24 30 32 41 51 44 43 47 78 85 85 84 82 78 75 70 66 64 64 62 63 64 63 60 56 67 71 68 66 67 68 70 70 71
29 28 30 34 28 22 22 21 22 21 21 19 18 18 18 27 33 36 44 46 44 47 50 62 86 87 86 84 81 79 72 67 64 64 63 61 68 72 73 68 71 72 70 68 69 71 73 73 72
35 29 33 32 27 23 24 20 20 20 19 18 19 18 17 26 35 43 46 45 44 50 52 56 83 88 87 87 86 81 75 71 66 66 62 65 73 76 69 73 72 74 72 75 73 76 76 76 76
36 35 31 28 26 25 25 20 22 20 19 19 17 19 16 21 36 47 45 45 50 51 50 51 61 67 90 89 86 84 77 75 69 66 67 79 81 77 78 76 77 76 80 77 79 79 80 80 82
38 34 34 34 30 30 23 25 21 21 19 16 17 19 18 26 40 46 46 47 49 51 50 49 49 50 66 73 87 87 84 82 80 79 85 88 86 81 79 82 83 81 81 82 83 84 82 82 79
46 41 38 34 34 28 26 28 23 20 20 20 19 20 21 29 41 47 50 53 52 52 51 48 47 51 56 63 76 85 87 86 87 83 90 80 47 51 56 88 88 86 86 83 80 71 64 59 62
44 44 35 27 30 30 27 28 24 27 25 23 22 20 22 28 36 43 45 47 51 53 55 61 53 54 55 59 66 59 53 59 56 56 58 49 51 47 55 77 88 86 85 75 63 54 44 49 31
46 46 32 41 37 34 33 34 29 30 30 25 24 22 24 25 28 34 34 34 43 47 51 63 64 60 57 57 59 62 52 55 56 56 54 50 51 54 52 52 54 57 72 46 40 35 29 29 24
53 44 40 40 42 46 46 38 40 34 27 21 25 24 28 28 25 24 31 32 38 48 52 56 66 74 69 57 56 55 51 54 54 56 54 50 51 58 54 55 55 48 40 38 32 28 23 20 17
56 42 46 44 51 47 42 44 42 38 32 31 31 32 32 30 26 22 23 28 34 43 49 52 59 68 75 74 57 56 50 53 53 56 51 49 54 59 52 42 38 33 29 26 24 20 16 15 15
48 54 49 46 44 42 47 42 39 37 31 31 30 29 29 28 26 23 24 24 32 36 41 46 53 67 72 81 63 57 50 52 54 52 52 54 54 57 46 42 38 29 22 18 17 18 18 16 15
53 57 42 40 41 44 42 46 41 30 28 30 30 26 26 24 25 25 23 23 21 25 30 39 49 57 74 82 65 55 54 57 55 52 55 58 58 47 39 36 29 22 20 18 18 16 18 17 15
56 56 55 40 43 38 39 45 30 34 32 32 30 26 25 24 22 22 21 23 22 21 23 26 39 53 74 76 66 61 55 56 52 54 60 60 47 42 35 30 26 22 21 20 19 18 18 19 18
53 46 55 45 39 42 43 43 35 29 34 35 28 27 28 28 24 22 21 22 24 21 21 27 33 44 56 67 72 65 60 63 69 64 54 46 41 33 26 25 24 21 20 20 18 19 20 21 20
41 56 46 41 38 46 46 42 34 32 33 32 29 28 29 31 30 24 22 22 24 24 24 26 36 44 54 77 75 78 66 62 57 52 45 39 33 27 24 24 22 20 22 20 19 20 21 23 21
46 49 47 40 40 48 43 40 35 31 31 32 31 29 27 27 27 27 26 26 27 27 30 34 42 54 74 80 78 81 66 57 49 41 37 35 31 29 26 23 22 22 22 22 20 21 23 23 22
52 52 48 40 38 44 41 41 34 31 31 29 28 27 26 25 24 26 27 26 27 28 36 41 47 68 73 78 78 71 65 52 41 41 38 36 32 28 26 25 24 24 24 24 24 27 23 22 24
55 57 52 50 42 40 47 44 27 21 20 22 24 24 22 22 23 24 23 24 29 32 38 47 55 69 67 77 67 58 49 42 39 41 43 37 29 24 24 25 24 26 26 28 27 26 25 24 24
60 44 50 58 60 60 44 50 28 23 23 23 23 23 23 23 22 23 24 23 25 33 41 53 67 63 69 69 60 55 55 54 42 37 40 32 26 24 22 23 23 24 24 26 22 21 25 26 27
57 51 51 54 60 62 51 83 34 29 29 26 22 20 19 20 21 24 24 24 23 32 52 64 73 63 69 65 60 59 56 47 32 38 32 29 24 24 23 22 24 24 23 24 24 26 25 26 26
51 57 57 57 63 88 52 49 39 26 22 20 20 19 17 20 23 25 29 27 27 36 59 72 71 65 63 66 62 57 47 36 38 35 34 28 24 23 22 22 23 23 23 25 27 30 30 29 27
58 70 79 84 93 65 29 41 38 25 23 21 20 16 17 19 22 24 28 31 34 50 65 69 66 63 62 64 61 48 44 39 39 31 30 25 24 24 24 22 21 22 26 28 28 30 29 28 28
65 61 67 63 45 40 32 53 32 21 21 21 20 19 18 20 19 18 25 33 40 54 61 64 61 60 59 57 54 45 42 42 29 27 25 23 22 22 22 21 20 20 22 24 26 27 29 28 28
73 92 54 78 67 89 46 41 26 24 27 23 21 19 27 27 29 26 22 37 43 52 58 59 57 56 56 52 46 51 43 37 28 27 24 23 22 20 21 21 21 22 23 24 25 25 25 26 29
65 56 88 97 87 71 42 45 35 24 21 18 19 26 28 30 33 30 26 39 46 53 55 53 51 52 48 47 46 42 34 29 28 24 25 24 20 19 21 21 22 23 24 24 24 24 26 26 28
81 91 94 77 77 69 51 30 19 25 28 35 32 29 33 37 38 37 29 40 52 54 55 53 50 51 50 48 43 36 33 29 24 23 23 21 19 19 20 20 21 22 23 22 22 24 27 30 31
44 56 61 94 88 86 63 48 20 23 21 31 31 32 33 40 45 44 36 50 57 57 55 53 52 53 51 45 41 36 28 24 23 21 20 18 19 19 20 21 23 23 23 21 22 26 29 32 34

GFSSGP_sfc_rhum_009.txt.gz
RH
49 21 18 21 27 24 24 20 13 17 16 13 14 15 18 18 20 32 38 37 33 42 49 60 82 81 77 74 74 72 67 70 68 60 58 59 62 65 64 60 60 61 59 61 64 64 63 64 65
30 20 21 22 30 27 22 15 17 13 16 14 14 16 17 19 18 31 37 38 32 39 47 50 84 82 79 76 75 74 66 69 68 61 58 57 62 65 63 61 60 62 61 62 66 68 69 69 70
32 20 25 27 28 27 22 18 15 15 15 16 16 16 17 20 24 26 32 35 32 38 43 52 85 83 80 78 76 74 69 63 63 60 60 60 62 64 60 59 64 66 64 66 68 69 68 70 69
26 24 22 30 28 20 18 16 14 17 14 16 16 17 17 19 25 25 32 33 31 37 39 78 86 84 82 82 76 73 69 64 63 64 64 65 63 64 60 59 69 70 68 68 68 70 71 72 71
27 23 30 29 25 18 15 16 16 17 15 16 16 18 17 21 26 30 34 33 33 37 44 60 85 84 84 84 81 76 70 66 64 64 62 66 71 72 70 67 72 71 70 70 69 73 76 74 74
30 24 31 28 23 18 15 15 16 16 14 14 16 16 16 22 25 32 35 32 30 37 44 61 82 85 85 84 84 80 72 69 65 66 64 72 72 74 70 74 73 73 75 73 74 77 77 78 79
36 31 30 25 22 18 16 16 18 17 16 15 13 18 15 18 30 34 34 32 34 37 40 58 62 71 89 87 86 82 77 73 68 68 68 81 77 78 73 75 76 77 77 77 81 82 82 82 81
32 30 31 28 23 22 15 16 17 17 16 13 14 17 17 26 34 34 34 35 36 38 39 43 54 56 60 72 87 85 83 81 77 78 86 88 84 77 82 87 83 80 80 82 82 79 78 73 66
36 42 36 31 24 21 16 18 18 15 16 14 14 15 19 25 33 36 39 40 40 41 40 38 39 43 58 63 75 84 87 85 86 84 87 79 51 54 60 87 88 86 83 80 71 62 52 55 61
42 42 33 20 18 20 19 22 20 22 21 17 16 16 19 22 27 36 38 40 41 42 41 39 40 42 58 59 65 60 57 63 58 56 58 46 44 46 53 76 90 84 82 72 59 47 43 51 32
38 42 25 22 28 28 27 23 20 23 26 19 18 17 17 20 23 27 29 29 35 38 41 44 43 46 52 55 62 54 50 59 54 49 50 42 44 53 54 58 64 72 82 49 49 40 32 28 23
39 31 28 27 26 35 35 26 26 25 24 18 16 17 18 22 21 21 24 24 26 36 40 49 47 50 50 51 59 52 51 51 53 49 46 44 48 54 49 51 62 51 44 41 37 31 24 18 16
42 37 27 29 34 34 34 36 33 32 27 22 22 24 25 23 22 20 19 20 24 32 38 44 49 60 53 51 65 58 53 46 46 48 48 41 46 53 50 47 43 38 34 30 26 20 18 17 17
35 38 35 34 36 36 41 36 33 29 25 25 25 26 24 24 23 21 20 20 22 27 35 39 46 57 64 61 61 60 50 44 51 52 46 42 45 58 48 42 38 32 26 20 19 19 19 18 16
44 50 39 35 34 37 33 41 38 28 25 25 23 23 23 22 20 21 20 20 19 22 27 34 40 47 63 67 67 62 49 45 61 55 45 48 57 48 43 37 32 26 22 20 20 17 18 19 16
49 44 48 31 32 29 33 44 26 24 25 27 23 21 21 20 19 18 19 19 19 18 21 26 34 41 57 72 70 68 57 52 68 55 56 58 49 44 38 34 30 24 23 22 21 20 22 22 21
44 44 41 36 28 32 36 38 25 25 25 24 23 23 22 22 19 18 17 18 18 19 20 22 27 38 50 71 70 69 66 61 59 56 59 55 46 37 33 32 27 22 24 23 21 24 24 25 25
40 46 37 33 25 34 37 34 26 23 24 28 26 23 22 22 21 21 18 17 18 20 21 20 26 30 41 59 74 83 67 83 69 59 56 47 37 32 32 26 24 24 26 25 25 25 24 25 25
37 38 34 27 25 34 34 31 25 22 22 24 24 23 23 22 19 20 22 20 19 20 23 23 24 32 37 53 82 89 88 78 65 53 47 39 32 32 33 27 25 27 28 27 25 26 27 27 26
43 43 40 31 28 33 36 35 27 24 23 22 22 22 22 20 19 20 20 24 23 24 25 26 28 33 41 66 76 78 76 71 53 45 38 33 34 34 32 30 29 28 30 30 29 31 27 28 28
43 46 42 39 34 34 39 39 28 21 20 20 19 20 20 20 19 18 19 21 27 26 27 26 31 39 55 72 76 73 62 53 48 42 39 37 34 33 32 30 29 31 33 34 32 30 29 31 31
50 34 37 44 50 50 38 47 26 17 18 18 18 18 18 18 18 18 18 19 23 28 31 30 36 46 59 71 74 70 64 62 52 41 40 35 33 35 30 28 28 29 30 31 27 24 28 32 33
49 47 46 48 54 56 44 55 31 17 18 14 14 19 18 18 17 16 18 21 20 25 36 39 39 51 56 72 68 62 56 58 42 36 36 33 34 34 29 26 29 28 28 28 29 29 27 28 29
45 50 52 53 64 82 46 38 31 20 13 14 14 15 16 14 14 18 19 19 22 28 37 46 45 56 60 72 66 58 58 49 44 38 35 33 32 33 26 26 28 27 28 30 31 33 32 30 30
53 66 75 81 93 65 23 30 26 17 15 14 16 16 15 14 14 16 19 22 29 31 35 50 56 58 60 66 64 58 57 53 50 36 33 33 31 30 28 27 26 26 30 30 30 32 31 30 31
62 58 62 57 42 34 26 37 24 17 14 15 16 16 16 16 14 23 25 19 27 35 37 50 59 57 61 62 65 60 47 52 43 34 31 29 29 27 26 25 24 24 24 26 27 30 32 29 32
60 81 48 72 53 67 39 29 21 17 18 17 17 18 17 16 24 26 27 23 20 30 36 51 56 57 59 68 64 52 48 45 39 32 30 28 27 24 24 24 23 23 23 24 25 27 26 28 31
54 46 84 93 83 59 33 29 28 21 19 16 16 18 17 20 24 28 30 28 22 31 41 48 51 54 60 60 50 46 44 35 32 29 28 28 24 22 24 23 23 23 23 23 24 26 25 26 30
66 76 90 64 72 76 64 39 20 21 23 25 29 25 27 28 28 34 36 30 28 37 44 49 50 54 58 49 46 42 38 34 29 29 27 25 22 22 22 22 22 22 23 22 22 23 26 29 30
43 57 58 90 72 79 68 56 25 21 21 19 24 24 22 21 29 37 41 30 37 46 48 50 51 52 49 47 42 39 36 30 31 27 24 21 21 20 21 21 22 22 22 21 21 23 26 29 32

GFSSGP_sfc_rhum_012.txt.gz
RH
60 36 30 40 54 45 43 31 23 26 24 18 19 21 22 22 34 66 54 46 54 67 70 77 81 80 76 74 74 70 68 74 68 65 68 67 70 65 61 60 62 60 62 65 66 66 68 68 69
51 34 37 44 52 50 36 24 24 22 21 19 18 19 21 26 38 46 54 43 50 59 67 71 84 82 76 76 74 69 74 69 69 62 61 64 66 63 63 61 61 61 62 64 67 67 68 68 69
50 32 46 49 47 44 37 25 22 19 18 20 22 20 21 34 32 44 49 41 47 58 59 69 83 82 79 77 76 69 68 71 66 67 65 65 66 64 62 65 65 64 66 68 69 70 71 72 71
36 40 37 43 40 32 27 21 19 20 19 20 22 23 25 29 36 41 41 40 47 53 61 85 84 83 83 81 76 74 66 64 65 68 69 68 65 63 61 68 71 69 69 69 71 73 74 73 72
40 44 47 44 36 28 21 18 20 26 20 22 23 24 32 36 37 39 43 37 46 55 73 82 85 83 84 83 80 74 68 66 68 67 68 73 73 69 61 72 73 72 71 71 73 76 76 77 78
50 41 49 46 36 25 20 16 20 22 20 18 21 22 33 34 40 43 42 43 43 72 69 77 84 84 84 84 83 79 72 68 68 68 68 74 74 71 71 74 74 74 75 73 78 79 80 80 80
51 48 47 38 33 26 20 16 24 26 22 20 18 23 27 40 45 44 44 39 44 59 66 73 77 79 87 86 85 82 77 73 71 74 76 78 79 77 75 75 76 79 76 80 82 81 80 79 75
44 47 49 38 35 31 21 17 20 25 24 17 20 26 33 49 46 44 43 44 46 52 67 70 73 76 82 89 88 85 83 80 78 80 90 87 82 85 84 88 85 79 82 83 78 76 72 67 58
38 56 55 44 35 31 20 22 23 21 24 20 20 21 31 39 43 49 51 53 52 51 60 64 69 70 72 79 86 88 88 85 85 91 90 88 79 78 84 89 89 86 84 77 68 57 52 63 67
51 66 55 34 27 28 27 23 23 27 25 25 22 18 26 30 42 52 55 57 56 56 54 59 62 64 68 67 85 83 81 86 86 84 92 81 70 79 72 91 91 87 81 75 60 50 58 52 43
50 57 37 29 24 28 36 34 27 28 34 27 24 21 23 26 32 38 45 49 52 53 55 52 56 57 69 69 77 73 74 78 74 73 76 67 70 78 82 94 93 97 85 73 66 58 39 34 30
47 38 36 35 30 32 40 34 35 31 30 25 24 24 25 30 28 32 35 36 45 52 54 55 56 63 71 71 69 65 65 72 78 71 64 63 76 77 77 80 75 64 70 53 46 41 28 26 23
44 38 30 30 32 34 35 41 42 39 32 29 27 26 30 32 31 29 28 29 32 50 54 60 62 67 65 68 79 64 69 71 72 68 62 62 75 77 73 67 66 56 45 39 34 31 30 28 25
41 40 39 37 35 37 41 42 42 38 31 30 30 31 31 32 32 31 30 30 30 38 50 58 60 68 71 67 75 74 71 59 60 60 64 58 69 69 63 58 54 42 36 32 31 28 30 29 27
43 57 48 43 40 43 39 47 45 36 33 33 32 30 29 29 30 30 29 30 28 31 42 52 58 69 76 72 74 68 69 63 71 64 57 59 59 53 59 54 47 39 35 31 31 29 33 34 30
59 57 68 37 37 37 43 58 36 29 33 34 32 29 26 28 28 25 24 26 28 29 37 44 47 63 71 68 72 73 66 69 74 67 58 63 54 56 54 51 44 37 35 36 35 36 39 39 37
58 66 58 47 37 38 40 52 35 30 30 34 34 30 28 26 25 24 24 25 26 28 28 41 47 56 70 74 75 83 75 85 69 76 72 61 52 47 45 43 39 36 39 38 36 40 40 40 39
58 60 50 46 38 39 43 44 35 30 28 32 33 34 34 30 28 26 24 22 24 26 29 31 43 51 70 84 73 93 87 84 80 76 70 52 48 41 43 38 37 39 43 42 40 39 40 39 39
48 52 49 37 28 36 38 35 32 28 28 26 28 30 30 29 25 25 27 29 31 26 33 32 38 46 71 83 86 94 91 89 86 71 58 52 43 46 39 37 41 44 43 41 37 40 38 43 43
50 56 53 40 31 38 42 42 35 31 30 27 26 25 25 26 26 25 25 32 32 34 32 36 38 40 48 75 80 90 90 88 69 69 55 47 44 41 34 36 43 43 47 43 41 40 44 44 43
54 57 52 48 42 41 44 48 41 29 30 28 26 24 23 24 25 25 24 27 36 32 38 39 38 41 43 84 85 80 70 62 60 51 53 47 43 39 35 37 40 49 53 51 44 42 39 47 46
58 44 44 45 59 72 48 78 45 32 24 26 27 27 25 24 24 23 22 24 30 33 34 40 40 45 66 85 82 82 80 71 61 64 70 47 39 38 35 42 39 47 51 43 40 36 41 46 46
53 50 51 55 66 75 63 79 49 31 31 24 23 23 26 26 26 25 26 24 23 28 39 46 44 55 82 85 78 80 77 65 58 52 49 38 35 34 36 35 38 44 46 40 40 41 39 42 46
47 56 60 63 71 97 68 57 42 31 27 23 21 19 22 22 24 23 24 29 31 28 38 56 45 66 81 85 81 76 69 59 52 44 43 36 37 36 34 34 38 43 44 43 45 44 42 42 42
55 69 96 98 99 90 40 51 38 27 22 20 23 23 19 20 22 22 26 34 34 38 41 60 50 70 82 85 81 70 65 54 52 51 48 38 35 37 37 37 41 45 45 45 45 45 44 41 44
67 64 92 81 86 74 45 68 39 24 21 19 20 21 22 23 23 32 39 41 41 42 46 54 56 75 86 86 79 65 54 54 53 55 47 37 34 34 35 35 39 38 38 40 42 46 46 41 46
71 86 63 82 74 92 62 41 28 23 23 22 22 22 25 24 25 33 40 41 42 42 49 59 63 75 81 82 73 64 54 57 54 54 46 33 30 30 33 32 36 35 35 36 37 43 40 38 42
62 51 87 95 98 83 55 45 42 31 31 28 27 32 33 33 36 38 41 46 45 42 47 58 71 72 74 71 69 55 54 52 49 45 40 33 31 26 29 33 35 34 33 33 35 36 33 35 43
72 77 84 79 90 96 82 56 32 33 30 33 33 38 34 38 35 34 46 50 47 43 51 61 72 73 72 69 54 50 48 44 40 37 29 28 27 27 28 34 34 32 32 31 32 32 33 36 41
54 66 66 92 86 85 85 69 34 33 32 29 29 28 35 31 36 43 54 54 49 48 61 66 66 72 56 50 46 43 40 35 37 30 27 25 26 26 28 32 32 30 30 27 28 31 34 38 41

GFSSGP_sfc_rhum_018.txt.gz
RH
69 64 61 46 50 60 65 52 48 35 30 28 25 24 28 41 37 53 76 86 87 91 84 80 81 78 73 72 70 72 74 74 76 72 72 73 69 66 63 60 63 62 62 64 69 71 70 69 68
77 53 47 55 62 70 61 47 38 34 26 27 24 24 31 61 59 80 85 84 83 85 82 80 82 78 74 71 72 75 74 77 78 76 74 68 64 61 60 60 63 63 64 64 65 66 67 66 66
67 56 51 59 66 66 58 45 32 26 24 28 30 25 38 57 63 72 85 79 82 86 81 81 83 78 75 71 78 73 69 71 74 76 73 65 62 62 60 61 63 65 68 70 71 71 69 70 69
58 56 56 62 67 53 45 40 33 26 22 26 30 30 45 50 59 61 79 78 88 89 86 86 84 81 80 78 79 72 67 67 72 74 75 69 66 67 64 65 68 72 73 74 75 74 74 76 75
63 64 68 71 60 50 43 35 32 28 24 26 29 33 62 57 60 76 80 79 88 90 89 85 86 81 79 78 80 77 71 68 70 70 70 68 67 70 70 70 72 72 72 76 76 75 78 78 78
68 66 82 70 64 46 39 34 32 27 25 27 29 28 61 64 60 74 77 82 77 85 87 85 86 86 84 80 78 78 75 73 73 74 72 70 68 70 74 73 74 75 72 76 76 78 79 79 76
71 70 77 72 61 51 39 32 33 28 27 25 21 32 69 71 59 60 77 77 75 79 85 86 84 86 88 86 80 77 77 77 78 79 79 79 78 74 76 75 77 73 77 79 80 80 78 73 63
63 69 77 63 52 52 37 32 26 29 27 26 24 49 75 62 57 60 86 84 82 86 85 90 89 86 89 89 86 82 81 80 80 84 86 85 86 83 81 83 84 77 80 80 79 76 70 61 52
58 83 84 67 58 51 40 41 33 28 30 29 30 31 48 55 60 64 92 94 89 89 92 95 95 91 94 93 88 86 86 86 87 90 88 88 96 93 91 92 88 87 84 78 71 63 59 63 63
67 87 74 55 52 52 39 46 42 33 32 33 31 51 54 59 64 66 82 96 94 93 94 94 94 93 95 82 94 96 89 95 96 96 94 91 96 96 91 94 91 90 85 79 63 55 55 44 37
66 78 56 53 49 46 46 42 46 45 40 37 35 48 54 53 69 66 66 82 93 89 90 92 93 90 90 85 93 97 98 98 98 96 96 95 89 97 98 99 98 98 90 85 66 49 36 30 31
73 56 50 51 46 48 48 44 53 46 40 37 48 38 35 42 37 56 66 66 76 91 86 87 92 90 90 91 91 93 94 96 98 97 96 97 96 98 98 99 98 98 94 75 56 37 31 29 26
65 57 48 46 48 48 42 46 45 50 42 40 41 39 37 38 38 41 48 59 71 76 84 84 88 86 88 94 91 88 88 89 89 93 94 86 95 93 98 98 98 95 75 42 38 34 32 31 29
53 49 50 49 49 51 50 51 50 49 43 42 42 41 42 40 37 42 40 38 43 65 67 83 86 83 85 86 86 87 82 83 86 87 87 77 83 90 96 94 78 49 40 37 33 34 36 37 35
56 65 61 56 55 55 50 52 60 45 44 47 48 48 43 42 38 37 36 38 39 45 59 75 80 84 86 84 88 85 80 79 84 82 78 69 80 84 80 66 49 42 37 32 36 40 39 38 32
66 68 81 56 51 49 51 62 50 44 52 51 49 49 46 40 41 37 36 35 38 40 60 67 68 82 87 86 90 86 82 77 82 75 70 64 76 66 59 48 45 42 38 38 40 42 40 40 38
75 88 83 68 50 50 58 68 46 40 46 48 48 48 44 41 39 39 35 36 31 38 42 70 71 81 85 87 89 89 78 83 76 68 60 76 67 58 48 43 46 40 41 42 40 45 40 37 39
79 91 77 70 47 50 53 63 52 45 44 44 42 40 42 44 39 34 34 36 34 33 41 58 70 75 82 91 92 95 89 88 82 70 65 69 64 55 44 44 40 41 46 46 44 43 44 43 44
58 71 74 61 46 48 48 48 43 37 39 38 34 35 35 34 30 36 36 36 37 36 38 50 71 74 87 96 97 95 89 91 94 79 69 65 59 48 41 40 39 45 44 44 40 43 38 46 47
72 74 79 60 49 50 52 51 42 39 37 35 33 31 30 32 33 33 34 36 35 34 37 40 58 70 81 88 86 92 89 95 90 85 67 59 51 42 36 37 43 46 48 45 44 45 49 48 48
72 71 72 66 56 57 58 44 44 41 39 36 31 30 31 31 30 28 30 30 34 36 37 39 46 65 79 82 94 98 95 95 89 76 67 58 47 40 36 39 44 48 51 50 43 46 45 49 48
77 60 58 62 68 80 62 81 69 47 40 36 34 44 40 38 35 32 32 32 32 33 36 38 45 66 83 89 94 92 90 94 95 84 88 68 45 41 39 41 42 47 50 42 44 43 50 51 48
65 57 60 67 78 82 81 87 66 55 46 39 34 32 34 32 38 37 35 33 31 32 35 42 48 58 85 93 92 92 90 87 97 93 87 73 51 41 42 42 48 48 48 41 42 43 47 49 53
56 60 69 78 83 94 76 79 66 44 41 35 30 26 23 22 26 32 30 31 35 38 39 40 45 53 79 95 94 90 92 92 92 88 81 69 56 46 42 44 46 42 39 39 43 42 40 49 50
61 73 90 86 97 85 70 83 71 42 35 34 31 30 28 25 25 25 27 38 44 51 50 48 48 50 86 95 95 92 93 86 85 82 79 65 61 51 49 46 45 44 48 46 47 47 42 47 48
74 68 85 72 96 90 68 80 53 39 34 31 28 29 28 27 28 28 29 45 52 56 54 54 54 58 94 95 95 94 86 85 84 77 71 63 59 59 54 44 41 44 44 45 47 51 49 49 52
79 90 70 87 88 96 81 64 39 34 32 39 40 38 41 41 37 32 34 51 54 54 52 53 54 58 88 97 95 94 84 88 82 78 68 67 65 61 53 46 47 44 44 44 42 47 45 48 52
68 65 89 94 94 93 80 73 51 39 40 39 37 37 39 38 39 40 39 46 57 56 53 58 59 59 76 95 95 90 84 85 84 77 69 61 60 53 50 44 46 46 41 39 43 46 45 45 51
82 91 86 84 92 98 94 73 47 40 42 44 41 39 39 37 36 40 41 50 62 63 63 61 64 66 77 95 96 83 86 80 77 73 63 58 54 48 40 42 45 42 40 38 37 45 39 42 46
71 78 80 93 84 97 94 80 42 47 45 46 41 43 50 45 41 46 48 62 68 68 67 68 72 77 82 95 85 82 81 77 72 64 59 54 47 44 43 44 42 40 46 45 35 36 40 42 46